Location: Albany
(35.0000°S, 118.0000°E)
Time: 21:14:20
(UTC-05:00)

JAS-1B - Visible Passes

Search period start: 24 February 2017 00:00
Search period end: 06 March 2017 00:00
Orbit: 912 x 1743 km, 99.0° (Epoch: 24 February)

Date Brightness Start Highest point End Pass type
(mag) Time Alt. Az. Time Alt. Az. Time Alt. Az.
24 Feb 7.5 14:45:10 10° SSE 14:50:59 58° ENE 14:56:56 12° N visible
25 Feb 7.1 15:04:03 10° SSE 15:09:59 85° ENE 15:16:09 12° NNW visible
26 Feb 9.5 13:34:55 10° ESE 13:38:01 14° E 13:41:17 10° NE visible
26 Feb 7.1 15:23:05 10° S 15:28:57 68° WSW 15:35:22 11° NNW visible
27 Feb 9.1 13:52:32 10° SE 13:57:09 22° E 14:02:09 10° NE visible
27 Feb 7.4 15:42:14 10° S 15:47:54 47° WSW 15:54:16 10° NW visible
28 Feb 8.6 14:10:49 10° SE 14:16:13 32° E 14:21:35 13° NNE visible
28 Feb 7.8 16:01:34 10° S 16:06:49 33° WSW 16:12:39 10° NW visible
01 Mar 8.0 14:29:23 10° SSE 14:35:15 47° E 14:40:48 15° N visible
01 Mar 8.3 16:21:05 10° SSW 16:25:41 23° WSW 16:30:42 10° WNW visible
02 Mar 7.4 14:48:11 10° SSE 14:54:16 69° ENE 15:00:02 16° N visible
03 Mar 9.7 13:20:21 10° ESE 13:22:17 11° E 13:24:17 10° ENE visible
03 Mar 7.1 15:07:07 10° SSE 15:13:15 85° WSW 15:19:17 15° NNW visible
04 Mar 9.4 13:37:12 10° SE 13:41:27 18° E 13:46:02 10° NE visible
04 Mar 7.3 15:26:10 10° S 15:32:14 60° WSW 15:38:31 13° NNW visible
05 Mar 8.9 13:55:14 10° SE 14:00:32 27° E 14:05:31 13° NNE visible
05 Mar 7.6 15:45:23 10° S 15:51:11 42° WSW 15:57:46 10° NW visible
